{"data":{"norad_id":59871,"epoch":"2026-05-25T04:08:59.657280Z","epoch_age_seconds":56017,"freshness":"FRESH","line1":"1 59871U 24098P   26145.17291270 -.00000938  00000+0 -24580-4 0  9994","line2":"2 59871  42.9982 199.1033 0000978 300.5078  59.5677 15.27586808113621","mean_motion":15.27586808,"eccentricity":9.78e-5,"inclination_deg":42.9982,"raan_deg":199.1033,"arg_perigee_deg":300.5078,"mean_anomaly_deg":59.5677,"bstar":-2.458e-5,"rev_number":11362,"period_min":94.266328594794,"perigee_km":482.35768850771,"apogee_km":483.69973252069,"semimajor_km":6861.1657105142,"source":"CELESTRAK","updated_at":"2026-05-25T13:38:19.093087Z"}}